Hourly Data Report for October 08, 2016

All times are specified in Local Standard Time (LST). Add 1 hour to adjust for Daylight Saving Time where and when it is observed.

WINNIPEG A CS
MANITOBA

49°55'00.000" N
97°14'58.000" W
238.70 m
502S001
71849
XWG

Download Data

Hourly Data (October 2016)
Hourly Data Report for October 8, 2016
Temp Definition
°C
Dew Point Temp Definition
°C
Rel Hum Definition
%
Wind Dir Definition
10's deg

Wind Spd Definition
km/h
Visibility Definition
km
Stn Press Definition
kPa
Hmdx Definition


Wind Chill Definition


Weather Definition


TIME
00:00 2.6 2.2 97 30 15   99.07     LegendNANA
01:00 2.5 2.1 97 30 13   99.14     LegendNANA
02:00 1.9 1.8 99 31 20   99.19     LegendNANA
03:00 1.3 1.3 100 27 12   99.25     LegendNANA
04:00 0.6 0.6 100 28 12   99.31     LegendNANA
05:00 0.2 0.2 100 29 9   99.37     LegendNANA
06:00 0.0 0.0 100 28 11   99.41   -4 LegendNANA
07:00 -0.3 -0.3 100 28 7   99.48   -3 LegendNANA
08:00 0.0 0.0 100 28 9   99.52   -3 LegendNANA
09:00 1.9 1.9 100 30 11   99.59     LegendNANA
10:00 3.2 2.4 94 32 10   99.64     LegendNANA
11:00 5.5 2.0 78 35 7   99.67     LegendNANA
12:00 5.7 1.2 73 1 8   99.68     LegendNANA
13:00 6.6 1.4 69 25 5   99.67     LegendNANA
14:00 5.7 2.4 79 22 7   99.68     LegendNANA
15:00 8.0 2.9 70 32 9   99.70     LegendNANA
16:00 6.6 2.5 76 33 14   99.75     LegendNANA
17:00 6.6 2.6 76 29 9   99.76     LegendNANA
18:00 4.9 3.0 88 28 10   99.78     LegendNANA
19:00 5.2 1.4 76 29 4   99.79     LegendNANA
20:00 4.5 2.8 89 28 6   99.82     LegendNANA
21:00 3.1 1.9 92 27 7   99.84     LegendNANA
22:00 2.5 1.9 95 27 4   99.87     LegendNANA
23:00 2.7 2.0 95 24 3   99.86     LegendNANA

Notes on Data Quality.

Legend

  • E = Estimated
  • M = Missing
  • NA = Not Available
  • ‡ = Partner data that is not subject to review by the National Climate Archives
Date modified: